Chillicothe, MO

3:39 PM CST on November 16, 2019 (GMT -0600)
Chillicothe

Weather History for KCDJ - September, 2019

Change the Weather History Date:

Thursday, September 26, 2019

  Actual Average (WUND) Record (WUND)
Temperature  
Mean Temperature 64 °F -  
Max Temperature 73 °F - - (-1)
Min Temperature 54 °F - - (-1)
Degree Days  
Heating Degree Days 2    
Growing Degree Days 14 (Base 50)    
Moisture  
Dew Point 51 °F    
Average Humidity 65    
Maximum Humidity 96    
Minimum Humidity 38    
Precipitation  
Precipitation 0.00 in - - ()
Sea Level Pressure  
Sea Level Pressure 29.97 in    
Wind  
Wind Speed 3 mph (SE)    
Max Wind Speed 7 mph    
Max Gust Speed -    
Averages and records for this station are not official NWS values.
T = Trace of Precipitation, MM = Missing Value Source: NWS Daily Summary

Daily Weather History Graph

Daily Weather History Graph

Search for Another Location

Airport or City:

Astronomy

Sep. 26, 2019 Rise Set
Actual Time 7:05 AM CDT 7:05 PM CDT
Civil Twilight 6:38 AM CDT 7:32 PM CDT
Nautical Twilight 6:07 AM CDT 8:03 PM CDT
Astronomical Twilight 5:35 AM CDT 8:35 PM CDT
Moon 4:13 AM CDT (9/26) 6:18 PM CDT (9/26)
Length of Visible Light 12h 53m
Length of Day
11h 59m
Waning Crescent, 6% of the Moon is Illuminated
Sep 26
Waning Crescent
Sep 28
New
Oct 5
First Quarter
Oct 13
Full
Oct 21
Last Quarter

Hourly Weather History & Observations

Time (CDT) Temp. Dew Point Humidity Pressure Visibility Wind Dir Wind Speed Gust Speed Precip Events Conditions
12:52 AM 61.0 °F 52.0 °F 72% 29.98 in - Variable 3.5 mph - N/A   Unknown
1:52 AM 57.9 °F 53.1 °F 84% 30.00 in - Calm Calm - N/A   Unknown
2:52 AM 57.9 °F 54.0 °F 87% 30.01 in - Calm Calm - N/A   Unknown
3:52 AM 55.0 °F 54.0 °F 96% 30.01 in - Calm Calm - N/A   Unknown
4:52 AM 55.0 °F 54.0 °F 96% 30.01 in - Calm Calm - N/A   Unknown
5:52 AM 55.9 °F 52.0 °F 87% 30.02 in - North 4.6 mph - N/A   Unknown
6:52 AM 55.0 °F 51.1 °F 86% 30.04 in - Calm Calm - N/A   Unknown
7:52 AM 54.0 °F 52.0 °F 93% 30.05 in - Calm Calm - N/A   Unknown
8:52 AM 62.1 °F 52.0 °F 70% 30.05 in - Calm Calm - N/A   Unknown
9:52 AM 64.9 °F 50.0 °F 58% 30.06 in - Variable 3.5 mph - N/A   Unknown
11:52 AM 70.0 °F 48.0 °F 46% 30.04 in - North - - N/A   Unknown
12:52 PM 71.1 °F 44.1 °F 38% 30.02 in - SE 5.8 mph - N/A   Unknown
1:52 PM 73.0 °F 46.9 °F 39% 29.99 in - ESE 5.8 mph - N/A   Unknown
2:52 PM 73.9 °F 46.9 °F 38% 29.95 in - Variable 5.8 mph - N/A   Unknown
3:52 PM 73.9 °F 48.0 °F 40% 29.91 in - SE 6.9 mph - N/A   Unknown
5:52 PM 73.0 °F 48.9 °F 42% 29.87 in - SSE 5.8 mph - N/A   Unknown
6:52 PM 70.0 °F 51.1 °F 51% 29.86 in - SSE 4.6 mph - N/A   Unknown
7:52 PM 68.0 °F 52.0 °F 56% 29.85 in - SE 3.5 mph - N/A   Unknown
8:52 PM 66.9 °F 52.0 °F 59% 29.85 in - South 5.8 mph - N/A   Unknown
11:52 PM 66.9 °F 55.0 °F 66% 29.80 in - Variable 5.8 mph - N/A   Unknown